Location: Newark
(14.6670°N, 74.3000°E)
Time: 00:58:47
(UTC+00:00)

Envisat - Visible Passes

Search period start: 23 October 2019 00:00
Search period end: 02 November 2019 00:00
Orbit: 764 x 766 km, 98.1° (Epoch: 22 October)

Date Brightness Start Highest point End Pass type
(mag) Time Alt. Az. Time Alt. Az. Time Alt. Az.
23 Oct 4.1 13:50:42 10° S 13:55:32 46° W 14:00:23 10° NNW visible
24 Oct 3.0 13:13:50 10° SSE 13:18:50 63° ENE 13:23:51 10° N visible
25 Oct 5.4 14:17:07 10° SSW 14:21:02 23° W 14:24:57 10° NW visible
26 Oct 3.5 13:39:17 10° S 13:44:17 63° WSW 13:49:18 10° NNW visible
27 Oct 3.2 13:02:47 10° SSE 13:07:37 46° ENE 13:12:27 10° N visible
27 Oct 6.3 14:45:37 10° WSW 14:46:33 10° W 14:47:30 10° W visible
28 Oct 4.9 14:05:21 10° SSW 14:09:46 30° W 14:14:11 10° NW visible
29 Oct 3.0 13:27:57 10° S 13:33:02 85° WSW 13:38:06 10° NNW visible
30 Oct 3.6 12:51:51 10° SE 12:56:24 34° ENE 13:00:56 10° NNE visible
30 Oct 6.0 14:32:29 10° SW 14:35:17 15° W 14:38:04 10° WNW visible
31 Oct 4.3 13:53:45 10° S 13:58:30 41° W 14:03:15 10° NNW visible
01 Nov 2.9 13:16:45 10° SSE 13:21:48 71° ENE 13:26:50 10° N visible
